EHI
0 0 0 0 0 0 0 0 0 0 0 0 0 0 0 0 0 0 0 1 2 4 5 6 5 6 8 11 16 18 17 15 12 8 5 4 3 2 2 1 1 0 0 0
0 0 0 0 0 0 0 0 0 0 0 0 0 0 0 0 0 0 0 1 2 3 5 6 7 7 9 12 15 18 19 18 15 9 5 4 3 2 1 1 0 0 0 0
0 0 0 0 0 0 0 0 0 0 0 0 0 0 0 0 0 0 0 0 1 2 4 6 8 9 10 12 14 17 20 21 18 12 6 3 3 2 2 2 2 1 1 0
0 0 0 0 0 0 0 0 0 0 0 0 0 0 0 0 0 1 1 0 0 1 2 4 7 9 11 12 14 18 22 25 25 20 12 7 5 3 4 4 5 5 4 2
0 0 0 0 0 0 0 0 0 0 0 0 0 0 0 0 0 1 1 0 0 0 0 1 4 9 12 14 16 20 26 31 33 30 24 18 10 5 5 5 7 8 7 6
0 0 0 0 0 0 0 0 0 0 0 0 0 0 0 0 0 1 1 1 1 1 0 1 4 9 14 16 18 22 30 37 38 36 34 29 21 13 9 8 9 10 8 8
0 0 0 0 0 0 0 0 0 0 0 0 0 0 0 1 1 2 2 2 2 2 2 3 6 10 15 18 19 24 32 38 40 39 37 34 30 22 15 13 13 11 9 8
0 0 0 0 0 0 0 0 0 0 0 0 0 0 0 1 2 3 3 3 3 3 4 7 11 13 16 18 20 25 33 39 40 39 37 35 32 24 18 18 16 14 12 11
0 0 0 0 0 0 0 0 0 0 0 0 0 0 0 1 1 3 3 4 4 4 6 11 15 16 17 17 20 25 33 39 41 40 39 37 33 27 24 23 22 19 19 17
0 0 0 0 0 0 0 0 0 0 0 0 0 0 0 0 1 3 3 4 6 7 9 14 19 21 19 17 19 25 31 38 42 42 41 40 38 35 32 31 28 24 23 23
0 0 0 0 0 0 0 0 0 0 0 0 0 0 0 1 2 4 5 7 9 10 13 16 21 25 24 21 21 25 29 34 39 43 44 44 43 42 41 37 32 28 27 28
0 0 0 0 0 0 0 0 0 0 0 0 0 0 0 1 3 7 11 12 13 14 17 19 23 28 30 28 29 30 30 32 37 42 45 46 46 47 45 40 34 33 34 33
0 0 0 0 0 0 0 0 0 0 0 0 0 0 0 1 4 10 15 17 19 22 23 25 28 32 34 36 38 37 34 32 36 42 45 47 48 48 45 39 35 36 35 33
0 0 0 0 0 0 0 0 0 0 0 0 1 1 1 2 5 12 18 21 24 27 29 32 36 38 40 44 46 44 39 36 37 42 46 48 50 49 46 42 40 39 35 31
0 0 0 0 0 0 0 0 0 0 0 1 2 3 3 4 8 16 22 24 25 29 33 38 41 43 45 49 51 50 47 43 43 45 47 49 50 50 50 48 45 42 38 34
0 0 0 0 0 0 0 1 1 2 1 2 3 4 5 7 12 21 25 25 27 32 37 41 44 46 47 48 51 54 55 52 51 50 50 50 50 51 50 48 44 43 42 38
0 0 0 0 0 0 0 1 2 2 2 2 4 5 6 9 14 21 26 28 32 37 41 42 45 45 43 41 44 49 52 52 53 53 51 49 49 50 48 45 43 43 43 40
0 0 0 0 0 0 0 1 1 1 2 3 5 7 9 10 13 19 26 32 36 39 40 41 40 39 37 36 36 39 43 47 52 54 51 49 49 50 47 44 42 41 40 38
0 0 0 0 0 0 0 1 1 2 4 5 7 9 11 11 12 18 26 31 35 37 38 38 35 32 32 32 34 37 43 48 52 52 51 51 50 49 45 41 39 37 35 34
0 0 0 0 0 0 1 1 2 3 6 8 10 12 14 15 15 20 25 28 31 34 36 36 35 32 31 32 36 41 47 51 51 48 48 49 48 45 42 39 36 34 32 30
0 0 0 0 0 1 1 1 3 5 9 12 13 15 18 22 23 25 26 27 29 31 33 35 36 35 33 34 37 41 45 47 47 43 42 43 41 37 37 36 35 33 30 28
0 0 0 0 0 1 1 3 7 11 13 15 15 16 21 26 28 27 25 26 28 29 30 32 33 34 33 34 37 38 38 39 39 38 38 36 33 31 31 33 32 30 27 24
1 1 1 0 1 2 4 8 12 13 14 15 15 17 21 25 27 27 26 27 28 28 28 29 30 29 28 29 33 34 32 30 32 35 34 31 28 28 29 31 31 28 24 20
2 2 2 1 2 5 10 13 14 12 10 12 13 14 18 22 26 28 28 27 27 27 27 27 28 26 22 22 26 29 27 25 27 30 31 29 27 27 29 31 30 26 21 18
2 3 4 3 4 8 11 14 13 11 9 10 11 11 14 18 23 25 25 23 22 24 24 25 25 22 18 17 19 22 23 24 25 25 26 25 24 25 27 27 24 20 17 15
2 3 5 5 7 9 11 11 12 12 11 12 11 10 12 16 20 22 21 18 17 20 22 22 22 20 16 15 17 19 21 26 27 23 22 22 21 22 23 23 19 13 12 11
Wind_Speed
9 10 9 8 7 5 4 4 2 2 3 6 6 5 8 11 11 11 11 10 10 10 9 9 9 9 9 9 8 8 7 7 5 4 4 3 3 2 2 2 1 1 1 1
10 12 8 5 6 7 7 6 4 4 4 5 5 6 6 10 12 11 11 11 11 10 10 10 10 10 10 10 10 9 9 8 7 4 3 2 1 2 1 1 1 1 1 1
14 8 6 7 8 9 9 7 5 3 5 6 6 7 8 9 11 11 11 11 11 11 11 11 11 11 11 11 11 9 9 8 8 6 5 4 3 3 3 3 2 2 1 1
12 7 8 10 10 10 8 5 5 6 8 5 6 4 7 9 11 12 12 12 12 12 11 12 12 12 12 11 11 10 9 9 8 8 6 6 4 3 3 2 2 2 2 2
11 10 11 12 10 9 5 3 6 7 8 7 6 8 4 8 10 11 12 12 12 12 12 12 12 12 12 12 11 10 10 9 9 8 7 7 5 4 3 3 3 3 3 3
9 7 8 9 7 7 6 6 5 7 8 9 5 8 3 6 8 8 10 10 11 11 11 11 11 11 12 11 11 11 11 10 9 9 8 8 6 5 4 4 3 4 3 3
12 11 9 8 9 10 11 10 8 9 8 6 3 8 3 2 4 6 8 9 10 10 10 11 12 13 13 13 12 11 11 10 10 10 9 9 8 7 6 6 5 4 3 3
15 15 13 11 12 10 13 14 10 8 7 6 7 7 2 2 3 5 6 8 9 10 9 10 12 12 13 13 13 12 11 11 10 10 9 8 8 7 6 6 4 4 3 2
12 12 10 9 9 11 12 13 11 10 10 9 6 5 5 5 6 7 8 8 9 9 9 10 11 12 12 13 13 12 12 11 10 10 9 8 8 7 5 5 5 4 3 3
9 10 11 9 9 7 10 10 8 11 10 10 8 9 5 6 6 8 8 8 8 8 9 9 10 11 11 12 12 12 11 10 10 10 9 8 8 8 6 6 5 4 4 3
12 11 11 12 14 13 10 12 11 10 10 11 9 6 2 4 6 7 8 8 8 8 9 9 9 9 10 11 11 11 11 10 9 9 9 8 8 8 8 7 6 5 5 5
12 11 11 13 7 6 12 13 13 11 10 10 11 4 5 2 4 5 6 6 6 7 8 9 9 9 9 10 10 10 10 9 9 9 8 8 8 7 7 7 6 6 5 5
9 10 12 12 12 10 12 12 13 13 11 11 12 6 6 4 4 4 5 6 6 7 7 9 9 9 9 9 8 9 9 9 9 8 8 8 8 8 7 7 6 6 6 5
7 11 13 14 10 12 13 13 13 14 11 11 13 9 5 4 4 4 4 5 6 7 7 8 8 8 8 8 8 8 8 8 8 8 8 8 8 7 7 6 6 6 6 5
7 11 13 12 8 10 12 14 15 16 14 13 10 10 5 3 4 4 4 5 6 6 7 7 7 7 7 7 7 8 8 8 8 8 8 8 7 7 6 6 6 6 6 5
5 8 11 13 11 12 13 14 14 15 14 13 12 10 3 2 2 3 4 5 6 6 6 6 6 6 7 7 7 7 7 7 8 8 7 6 6 6 6 6 6 5 5 4
7 7 10 13 12 13 17 15 14 14 12 12 12 7 3 4 3 4 4 4 5 5 5 5 4 5 5 5 6 6 6 7 7 7 6 6 6 6 5 5 5 5 5 5
7 8 8 9 11 18 8 6 11 12 11 10 9 6 5 3 2 4 3 4 4 4 4 4 3 4 4 4 5 5 6 6 7 6 6 6 6 6 5 5 5 5 5 5
8 9 8 10 14 14 8 7 9 11 10 8 8 6 4 4 5 5 3 3 3 3 3 3 3 2 3 3 4 5 5 6 6 6 6 6 6 6 6 6 5 5 5 5
9 9 10 10 14 15 7 6 6 8 10 6 7 7 5 6 7 4 4 4 4 3 3 2 2 3 3 3 4 4 4 4 4 4 4 4 5 5 5 5 5 5 5 5
12 11 13 13 13 8 2 3 8 11 4 2 4 5 6 5 2 3 5 5 4 4 3 3 3 3 3 3 4 4 4 4 3 3 4 4 4 5 5 5 4 4 4 4
10 11 12 11 14 9 3 5 6 0 2 1 2 3 4 4 4 6 6 5 4 4 3 3 3 3 2 2 3 3 3 2 2 3 3 3 4 3 3 4 4 4 5 5
7 5 4 4 3 2 0 1 0 1 1 1 2 3 4 5 6 6 5 5 4 3 3 2 3 3 3 2 2 1 1 1 2 2 2 3 3 3 4 4 4 4 5 5
4 3 4 4 3 2 1 1 1 1 2 2 2 3 4 5 6 6 5 4 3 3 3 2 2 2 2 2 2 1 1 1 2 2 2 2 4 4 4 3 4 4 4 5
2 4 5 5 3 2 2 1 1 1 1 1 1 2 4 5 5 5 5 4 3 2 2 1 1 1 1 1 1 1 0 1 2 2 2 3 3 4 3 3 3 5 4 4
5 5 5 4 3 3 1 0 0 0 1 1 1 2 3 4 4 3 3 2 2 1 1 1 1 0 0 1 0 0 0 1 2 2 3 3 2 3 4 4 3 2 3 3
Wind_Direction
199 219 217 213 228 262 253 250 213 149 158 211 222 214 180 182 197 198 195 195 199 201 194 192 194 194 188 182 183 188 192 184 192 193 196 188 182 188 174 184 156 185 212 182
205 220 221 219 217 234 235 237 214 169 169 226 228 232 201 191 203 207 203 200 202 199 193 192 195 194 194 188 188 189 193 191 194 185 195 196 207 193 172 174 144 203 205 220
222 209 193 207 207 222 232 243 240 206 178 210 237 217 200 192 206 209 212 210 205 204 198 194 196 197 195 192 191 191 191 190 195 190 191 183 183 202 182 181 174 187 199 193
224 204 200 213 214 226 227 233 242 218 223 209 237 255 178 189 199 207 210 210 208 204 202 197 195 196 195 193 190 190 189 191 191 194 201 199 202 202 184 192 159 172 191 197
208 202 210 220 218 223 233 203 218 226 241 251 218 264 170 180 202 205 206 208 209 204 202 200 198 193 194 192 188 186 187 190 191 195 197 204 208 201 185 182 165 198 184 199
217 200 222 223 208 199 174 172 192 223 240 244 238 260 231 183 206 203 199 201 205 202 200 200 197 190 191 189 188 185 185 190 191 195 198 205 208 207 200 198 186 197 184 188
209 204 201 205 191 187 204 209 210 216 223 234 205 250 260 187 196 209 201 194 195 195 195 195 193 190 189 189 189 186 184 189 192 196 200 201 204 204 206 213 199 212 199 189
208 205 195 203 215 205 214 227 235 241 240 216 197 242 241 191 204 210 204 192 188 188 189 191 189 188 187 188 188 188 187 190 192 196 200 202 205 209 206 208 222 210 217 204
216 211 182 201 220 227 212 228 244 250 253 257 225 224 228 209 208 202 197 192 187 187 185 185 184 185 184 185 186 188 187 190 193 195 195 200 204 213 210 199 213 216 210 202
227 220 189 181 197 219 246 229 226 242 245 249 235 230 229 201 204 197 195 194 189 187 182 179 179 180 179 180 182 186 187 191 193 193 197 193 195 199 204 208 204 210 210 211
231 223 195 193 210 204 202 216 228 239 248 253 252 233 197 204 203 199 193 192 187 184 178 173 175 175 173 175 176 181 186 189 193 196 196 197 194 195 198 202 204 203 207 205
223 231 221 209 203 249 224 224 218 229 232 244 263 247 111 162 190 194 190 181 174 176 174 170 171 171 172 175 177 180 184 188 190 190 190 194 196 196 200 199 201 201 203 205
203 225 222 207 200 206 223 223 228 236 238 239 248 236 134 156 181 177 175 168 166 171 171 166 167 168 171 174 176 178 185 186 185 184 189 190 193 193 199 200 199 201 201 203
230 229 232 231 218 199 210 215 224 231 234 239 243 253 192 191 189 184 175 172 170 165 166 166 165 166 167 170 174 179 184 184 183 185 188 189 192 191 192 196 198 197 198 198
232 227 230 241 238 227 222 221 218 230 242 252 251 250 244 226 208 196 184 174 173 166 166 167 166 162 163 167 174 179 180 179 183 187 189 187 188 188 186 188 193 194 196 196
232 238 227 228 228 228 228 225 223 228 236 243 252 250 249 224 207 188 183 178 174 170 167 162 164 163 165 172 176 173 176 176 179 186 188 182 182 184 185 187 190 191 196 200
216 224 227 225 216 225 227 221 221 223 228 237 244 246 230 212 198 192 193 188 178 171 168 164 163 170 175 175 173 173 174 175 179 184 184 179 180 181 183 187 185 189 195 197
233 231 234 229 211 229 228 218 226 224 228 237 248 247 231 218 189 176 187 186 177 169 166 167 173 179 178 174 173 172 170 173 178 181 182 180 181 178 177 178 181 192 198 198
225 224 233 228 225 228 205 202 214 220 225 231 235 230 212 186 179 164 162 172 166 158 151 157 176 172 159 154 159 158 170 170 171 176 182 182 183 181 179 182 185 193 199 205
198 220 231 228 235 233 212 179 211 226 223 220 223 217 203 193 218 178 148 156 152 144 140 146 147 132 127 132 138 150 159 162 170 174 177 179 190 190 192 192 192 197 200 207
194 205 222 229 235 233 138 187 199 221 213 171 202 203 203 199 246 119 140 146 141 131 125 124 116 109 107 125 140 151 160 170 172 167 173 178 193 197 198 196 195 201 204 204
210 209 213 225 233 222 129 193 216 295 61 199 193 191 182 162 136 124 129 136 139 137 134 132 119 107 103 119 143 153 160 164 158 164 175 182 194 212 198 198 198 201 206 210
231 257 240 237 238 72 129 215 247 325 291 277 220 186 168 162 150 141 135 132 134 133 124 121 117 108 99 100 122 148 135 154 169 169 177 197 206 213 211 206 204 207 210 223
191 249 239 220 197 202 216 220 252 267 275 271 231 196 178 168 156 150 144 139 137 130 122 108 108 108 101 95 107 101 85 197 198 192 188 200 215 216 207 212 214 219 220 227
228 215 217 215 205 204 199 235 265 291 259 175 173 185 182 173 163 155 149 145 136 119 110 104 100 96 102 84 82 119 167 221 224 219 218 220 229 223 213 217 232 231 232 236
232 236 237 226 196 227 206 32 337 135 129 133 144 154 163 171 169 162 155 149 148 145 136 153 180 172 105 79 356 329 239 221 235 232 231 237 240 232 219 213 221 234 238 205